MDL77 WIBB-WIII

Flight info

Callsign MDL77
Flight time 1h 31m
Altitude 39000
Route ISROR1H ISROR T5 BUNIK BUNIK2F
Aircraft A20N/M-SDE2E3FGHIRWXY/LB1

Departure

Time 2026-04-26 06:46
Airport Sultan Syarif Kasim II International Airport / Roesmin Nurjadin AFB (WIBB)

Arrival

Time 2026-04-26 08:17
Airport Soekarno-Hatta International Airport (WIII)
Time Latitude Longitude Altitude Speed Heading
2026-04-26 06:22 0.46441 101.44682 127 ft 0 kts 91°
2026-04-26 06:37 0.46441 101.44671 124 ft 2 kts 92°
2026-04-26 06:37 0.46441 101.44657 124 ft 1 kts 92°
2026-04-26 06:38 0.46442 101.44643 127 ft 2 kts 92°
2026-04-26 06:38 0.46443 101.44627 123 ft 2 kts 93°
2026-04-26 06:38 0.46443 101.44611 123 ft 2 kts 93°
2026-04-26 06:38 0.46448 101.44595 122 ft 2 kts 153°
2026-04-26 06:39 0.46464 101.44592 122 ft 2 kts 181°
2026-04-26 06:39 0.46480 101.44592 123 ft 2 kts 181°
2026-04-26 06:39 0.46485 101.44592 123 ft 0 kts 182°
2026-04-26 06:41 0.46481 101.44592 124 ft 3 kts 182°
2026-04-26 06:41 0.46435 101.44590 124 ft 11 kts 181°
2026-04-26 06:41 0.46383 101.44557 128 ft 10 kts 258°
2026-04-26 06:42 0.46380 101.44480 125 ft 12 kts 256°
2026-04-26 06:42 0.46303 101.44458 128 ft 13 kts 179°
2026-04-26 06:42 0.46198 101.44457 127 ft 17 kts 181°
2026-04-26 06:42 0.46072 101.44452 125 ft 20 kts 182°
2026-04-26 06:43 0.45926 101.44447 126 ft 22 kts 181°
2026-04-26 06:43 0.45765 101.44443 123 ft 24 kts 182°
2026-04-26 06:43 0.45591 101.44439 122 ft 26 kts 181°
2026-04-26 06:43 0.45408 101.44433 123 ft 27 kts 181°
2026-04-26 06:44 0.45219 101.44426 128 ft 27 kts 182°
2026-04-26 06:44 0.45036 101.44420 129 ft 26 kts 182°
2026-04-26 06:44 0.44860 101.44419 129 ft 23 kts 171°
2026-04-26 06:44 0.44767 101.44444 129 ft 1 kts 225°
2026-04-26 06:45 0.44768 101.44422 129 ft 3 kts 310°
2026-04-26 06:45 0.44815 101.44414 125 ft 5 kts
2026-04-26 06:45 0.44816 101.44414 125 ft 0 kts
2026-04-26 06:45 0.44837 101.44415 128 ft 20 kts
2026-04-26 06:46 0.45244 101.44428 125 ft 95 kts
2026-04-26 06:46 0.46108 101.44452 125 ft 151 kts
2026-04-26 06:46 0.47271 101.44486 393 ft 172 kts
2026-04-26 06:46 0.48497 101.44534 859 ft 182 kts
2026-04-26 06:47 0.49743 101.44803 1428 ft 186 kts 30°
2026-04-26 06:47 0.50625 101.45696 2054 ft 187 kts 64°
2026-04-26 06:47 0.51047 101.46949 2601 ft 196 kts 74°
2026-04-26 06:47 0.51406 101.48311 3103 ft 210 kts 76°
2026-04-26 06:48 0.51749 101.49814 3540 ft 234 kts 77°
2026-04-26 06:48 0.52145 101.51480 4136 ft 258 kts 76°
2026-04-26 06:48 0.52609 101.53242 5010 ft 266 kts 75°
2026-04-26 06:48 0.53111 101.55027 6048 ft 268 kts 73°
2026-04-26 06:49 0.53632 101.56820 7030 ft 271 kts 73°
2026-04-26 06:49 0.54167 101.58643 7957 ft 275 kts 73°
2026-04-26 06:49 0.54526 101.59864 8587 ft 277 kts 73°
2026-04-26 06:49 0.54762 101.61781 9470 ft 282 kts 95°
2026-04-26 06:50 0.53792 101.64235 10361 ft 303 kts 125°
2026-04-26 06:50 0.52769 101.65278 10561 ft 321 kts 141°
2026-04-26 06:50 0.49934 101.66509 11069 ft 350 kts 165°
2026-04-26 06:50 0.48308 101.66835 11609 ft 353 kts 168°
2026-04-26 06:51 0.45875 101.67239 12445 ft 357 kts 169°
2026-04-26 06:51 0.40960 101.68124 13959 ft 365 kts 167°
2026-04-26 06:51 0.38460 101.68630 14667 ft 368 kts 166°
2026-04-26 06:52 0.35938 101.69160 15350 ft 372 kts 166°
2026-04-26 06:52 0.33389 101.69705 16015 ft 376 kts 166°
2026-04-26 06:52 0.30853 101.70373 16675 ft 378 kts 159°
2026-04-26 06:52 0.28419 101.71380 17370 ft 380 kts 152°
2026-04-26 06:53 0.26043 101.72574 18019 ft 384 kts 151°
2026-04-26 06:53 0.23635 101.73771 18570 ft 388 kts 152°
2026-04-26 06:53 0.21207 101.74971 19134 ft 391 kts 152°
2026-04-26 06:53 0.18789 101.76165 19687 ft 394 kts 152°
2026-04-26 06:54 0.16291 101.77399 20243 ft 397 kts 152°
2026-04-26 06:54 0.13841 101.78697 20776 ft 399 kts 146°
2026-04-26 06:54 0.11613 101.80288 21294 ft 401 kts 138°
2026-04-26 06:54 0.09589 101.82214 21825 ft 402 kts 130°
2026-04-26 06:55 0.07759 101.84338 22339 ft 405 kts 129°
2026-04-26 06:55 0.05914 101.86479 22857 ft 408 kts 129°
2026-04-26 06:55 0.04045 101.88637 23359 ft 412 kts 129°
2026-04-26 06:55 0.02161 101.90809 23795 ft 414 kts 129°
2026-04-26 06:56 0.00262 101.92997 24220 ft 417 kts 129°
2026-04-26 06:56 -0.01647 101.95198 24647 ft 420 kts 129°
2026-04-26 06:56 -0.03541 101.97383 25051 ft 423 kts 129°
2026-04-26 06:56 -0.05472 101.99611 25450 ft 425 kts 129°
2026-04-26 06:57 -0.07416 102.01853 25858 ft 428 kts 129°
2026-04-26 06:57 -0.09368 102.04106 26254 ft 430 kts 129°
2026-04-26 06:57 -0.11330 102.06370 26635 ft 433 kts 129°
2026-04-26 06:57 -0.13314 102.08658 27009 ft 435 kts 129°
2026-04-26 06:58 -0.15299 102.10948 27376 ft 438 kts 129°
2026-04-26 06:58 -0.17299 102.13256 27744 ft 440 kts 129°
2026-04-26 06:58 -0.19307 102.15574 28090 ft 442 kts 129°
2026-04-26 06:58 -0.21332 102.17909 28432 ft 445 kts 129°
2026-04-26 06:59 -0.23360 102.20250 28762 ft 447 kts 129°
2026-04-26 06:59 -0.25408 102.22609 29085 ft 450 kts 129°
2026-04-26 06:59 -0.27439 102.24946 29404 ft 452 kts 129°
2026-04-26 06:59 -0.29508 102.27326 29727 ft 454 kts 129°
2026-04-26 07:00 -0.31547 102.29754 30000 ft 456 kts 126°
2026-04-26 07:00 -0.33342 102.32378 30267 ft 458 kts 120°
2026-04-26 07:00 -0.34878 102.35171 30530 ft 460 kts 117°
2026-04-26 07:00 -0.36382 102.37997 30808 ft 462 kts 117°
2026-04-26 07:01 -0.37902 102.40837 31118 ft 463 kts 117°
2026-04-26 07:01 -0.39426 102.43679 31472 ft 463 kts 117°
2026-04-26 07:01 -0.40954 102.46525 31842 ft 463 kts 117°
2026-04-26 07:01 -0.42454 102.49323 32200 ft 463 kts 117°
2026-04-26 07:02 -0.43974 102.52158 32555 ft 462 kts 117°
2026-04-26 07:02 -0.45494 102.54991 32901 ft 462 kts 117°
2026-04-26 07:02 -0.47016 102.57819 33243 ft 462 kts 117°
2026-04-26 07:02 -0.48538 102.60645 33589 ft 461 kts 117°
2026-04-26 07:03 -0.50059 102.63468 33908 ft 461 kts 117°
2026-04-26 07:03 -0.51578 102.66289 34217 ft 460 kts 117°
2026-04-26 07:03 -0.53092 102.69101 34528 ft 458 kts 117°
2026-04-26 07:03 -0.54601 102.71903 34845 ft 457 kts 117°
2026-04-26 07:04 -0.56105 102.74699 35149 ft 456 kts 117°
2026-04-26 07:04 -0.57609 102.77492 35447 ft 456 kts 117°
2026-04-26 07:04 -0.59107 102.80276 35747 ft 455 kts 117°
2026-04-26 07:04 -0.60605 102.83058 36056 ft 454 kts 117°
2026-04-26 07:05 -0.62097 102.85831 36356 ft 453 kts 118°
2026-04-26 07:05 -0.63589 102.88603 36650 ft 452 kts 118°
2026-04-26 07:05 -0.65078 102.91370 36934 ft 452 kts 118°
2026-04-26 07:05 -0.66567 102.94136 37220 ft 451 kts 118°
2026-04-26 07:06 -0.68054 102.96899 37481 ft 451 kts 118°
2026-04-26 07:06 -0.69539 102.99658 37728 ft 451 kts 118°
2026-04-26 07:06 -0.71023 103.02416 37984 ft 450 kts 118°
2026-04-26 07:06 -0.72488 103.05138 38228 ft 450 kts 118°
2026-04-26 07:07 -0.73970 103.07892 38457 ft 450 kts 118°
2026-04-26 07:07 -0.75457 103.10653 38645 ft 450 kts 118°
2026-04-26 07:07 -0.76939 103.13407 38816 ft 450 kts 118°
2026-04-26 07:07 -0.78423 103.16166 38851 ft 450 kts 118°
2026-04-26 07:08 -0.81392 103.21683 38852 ft 451 kts 117°
2026-04-26 07:08 -0.84371 103.27220 38854 ft 453 kts 117°
2026-04-26 07:09 -0.87417 103.32688 38857 ft 454 kts 122°
2026-04-26 07:09 -0.91296 103.37675 38857 ft 455 kts 133°
2026-04-26 07:11 -1.03380 103.47870 38845 ft 454 kts 140°
2026-04-26 07:11 -1.08281 103.51842 38854 ft 453 kts 140°
2026-04-26 07:12 -1.13176 103.55806 38855 ft 452 kts 140°
2026-04-26 07:12 -1.18062 103.59762 38855 ft 452 kts 140°
2026-04-26 07:13 -1.22911 103.63688 38856 ft 450 kts 140°
2026-04-26 07:13 -1.27774 103.67626 38853 ft 450 kts 140°
2026-04-26 07:14 -1.32632 103.71560 38847 ft 449 kts 140°
2026-04-26 07:14 -1.37484 103.75489 38850 ft 448 kts 140°
2026-04-26 07:15 -1.42326 103.79411 38837 ft 447 kts 140°
2026-04-26 07:15 -1.47131 103.83303 38838 ft 447 kts 140°
2026-04-26 07:16 -1.51957 103.87211 38829 ft 446 kts 140°
2026-04-26 07:16 -1.56779 103.91117 38829 ft 446 kts 140°
2026-04-26 07:17 -1.61607 103.95028 38837 ft 446 kts 140°
2026-04-26 07:17 -1.66428 103.98934 38838 ft 446 kts 140°
2026-04-26 07:18 -1.71260 104.02849 38823 ft 446 kts 140°
2026-04-26 07:18 -1.76082 104.06756 38824 ft 447 kts 140°
2026-04-26 07:19 -1.80916 104.10673 38830 ft 447 kts 140°
2026-04-26 07:19 -1.85725 104.14570 38840 ft 448 kts 140°
2026-04-26 07:20 -1.90569 104.18495 38838 ft 448 kts 140°
2026-04-26 07:20 -1.95429 104.22434 38848 ft 449 kts 140°
2026-04-26 07:21 -2.00294 104.26375 38843 ft 450 kts 140°
2026-04-26 07:21 -2.05161 104.30319 38845 ft 450 kts 140°
2026-04-26 07:22 -2.10002 104.34242 38840 ft 451 kts 140°
2026-04-26 07:22 -2.14887 104.38201 38843 ft 452 kts 140°
2026-04-26 07:23 -2.19773 104.42160 38848 ft 452 kts 140°
2026-04-26 07:23 -2.24666 104.46126 38845 ft 452 kts 140°
2026-04-26 07:24 -2.29564 104.50097 38846 ft 453 kts 140°
2026-04-26 07:24 -2.34425 104.54038 38837 ft 453 kts 140°
2026-04-26 07:25 -2.39331 104.58015 38842 ft 453 kts 140°
2026-04-26 07:25 -2.44231 104.61988 38834 ft 453 kts 140°
2026-04-26 07:26 -2.49131 104.65962 38842 ft 453 kts 140°
2026-04-26 07:26 -2.54036 104.69940 38844 ft 453 kts 140°
2026-04-26 07:27 -2.58932 104.73911 38834 ft 453 kts 140°
2026-04-26 07:27 -2.63798 104.77858 38839 ft 453 kts 140°
2026-04-26 07:28 -2.68695 104.81830 38843 ft 453 kts 140°
2026-04-26 07:28 -2.73596 104.85807 38831 ft 453 kts 140°
2026-04-26 07:29 -2.78487 104.89776 38834 ft 452 kts 140°
2026-04-26 07:29 -2.83353 104.93724 38822 ft 452 kts 140°
2026-04-26 07:30 -2.88244 104.97694 38819 ft 452 kts 140°
2026-04-26 07:30 -2.93137 105.01666 38819 ft 452 kts 140°
2026-04-26 07:31 -2.98027 105.05635 38820 ft 452 kts 140°
2026-04-26 07:31 -3.02885 105.09580 38819 ft 452 kts 140°
2026-04-26 07:32 -3.07772 105.13548 38822 ft 452 kts 140°
2026-04-26 07:32 -3.12660 105.17517 38820 ft 452 kts 140°
2026-04-26 07:33 -3.17548 105.21488 38818 ft 452 kts 140°
2026-04-26 07:33 -3.22436 105.25458 38828 ft 452 kts 140°
2026-04-26 07:34 -3.27326 105.29441 38821 ft 453 kts 140°
2026-04-26 07:34 -3.32161 105.33486 38813 ft 453 kts 139°
2026-04-26 07:35 -3.36960 105.37509 38820 ft 453 kts 139°
2026-04-26 07:35 -3.41797 105.41552 38819 ft 453 kts 139°
2026-04-26 07:36 -3.46640 105.45596 38824 ft 453 kts 139°
2026-04-26 07:36 -3.51481 105.49640 38824 ft 453 kts 139°
2026-04-26 07:37 -3.56327 105.53688 38827 ft 453 kts 139°
2026-04-26 07:37 -3.61142 105.57709 38826 ft 453 kts 139°
2026-04-26 07:38 -3.65979 105.61748 38827 ft 453 kts 139°
2026-04-26 07:38 -3.70003 105.65108 38822 ft 452 kts 139°
2026-04-26 07:39 -3.74835 105.69145 38822 ft 452 kts 139°
2026-04-26 07:39 -3.79670 105.73184 38827 ft 452 kts 139°
2026-04-26 07:40 -3.84493 105.77214 38814 ft 452 kts 139°
2026-04-26 07:40 -3.89322 105.81250 38822 ft 451 kts 139°
2026-04-26 07:41 -3.94155 105.85290 38819 ft 451 kts 139°
2026-04-26 07:41 -3.98946 105.89295 38827 ft 451 kts 139°
2026-04-26 07:42 -4.03765 105.93324 38814 ft 450 kts 139°
2026-04-26 07:42 -4.08580 105.97350 38823 ft 450 kts 139°
2026-04-26 07:43 -4.13386 106.01370 38811 ft 450 kts 139°
2026-04-26 07:43 -4.18196 106.05394 38827 ft 450 kts 139°
2026-04-26 07:44 -4.22997 106.09410 38823 ft 449 kts 139°
2026-04-26 07:44 -4.27766 106.13401 38824 ft 449 kts 139°
2026-04-26 07:45 -4.32563 106.17416 38825 ft 449 kts 139°
2026-04-26 07:45 -4.37374 106.21443 38821 ft 449 kts 139°
2026-04-26 07:46 -4.42170 106.25458 38831 ft 449 kts 139°
2026-04-26 07:46 -4.46965 106.29473 38827 ft 449 kts 139°
2026-04-26 07:47 -4.51760 106.33489 38827 ft 449 kts 139°
2026-04-26 07:47 -4.56531 106.37486 38831 ft 449 kts 139°
2026-04-26 07:48 -4.61327 106.41504 38821 ft 449 kts 139°
2026-04-26 07:48 -4.63723 106.43511 38672 ft 449 kts 139°
2026-04-26 07:48 -4.66124 106.45523 38441 ft 449 kts 139°
2026-04-26 07:48 -4.68518 106.47530 38173 ft 448 kts 139°
2026-04-26 07:49 -4.70914 106.49538 37911 ft 449 kts 139°
2026-04-26 07:49 -4.73319 106.51555 37380 ft 452 kts 139°
2026-04-26 07:49 -4.75742 106.53587 36595 ft 456 kts 139°
2026-04-26 07:50 -4.80578 106.57642 35267 ft 455 kts 139°
2026-04-26 07:50 -4.83014 106.59685 34464 ft 459 kts 139°
2026-04-26 07:50 -4.85546 106.61628 33674 ft 461 kts 146°
2026-04-26 07:50 -4.88349 106.63297 32870 ft 462 kts 152°
2026-04-26 07:51 -4.91222 106.64649 32018 ft 464 kts 155°
2026-04-26 07:51 -4.94169 106.65986 31171 ft 466 kts 154°
2026-04-26 07:51 -4.97116 106.67330 30523 ft 464 kts 154°
2026-04-26 07:51 -5.00040 106.68666 29998 ft 460 kts 154°
2026-04-26 07:52 -5.02942 106.69992 29344 ft 456 kts 154°
2026-04-26 07:52 -5.05819 106.71308 28735 ft 450 kts 154°
2026-04-26 07:52 -5.08654 106.72604 28123 ft 445 kts 154°
2026-04-26 07:52 -5.11464 106.73889 27535 ft 440 kts 154°
2026-04-26 07:53 -5.14237 106.75157 26947 ft 436 kts 154°
2026-04-26 07:53 -5.16982 106.76412 26483 ft 429 kts 154°
2026-04-26 07:53 -5.19667 106.77635 26186 ft 419 kts 154°
2026-04-26 07:53 -5.22280 106.78819 25609 ft 417 kts 154°
2026-04-26 07:54 -5.24911 106.80008 25087 ft 413 kts 154°
2026-04-26 07:54 -5.27530 106.81192 24545 ft 410 kts 154°
2026-04-26 07:54 -5.30125 106.82367 24006 ft 408 kts 154°
2026-04-26 07:54 -5.32708 106.83536 23461 ft 406 kts 154°
2026-04-26 07:55 -5.35274 106.84699 22855 ft 403 kts 154°
2026-04-26 07:55 -5.37812 106.85848 22332 ft 397 kts 154°
2026-04-26 07:55 -5.40326 106.86987 21791 ft 393 kts 154°
2026-04-26 07:55 -5.42805 106.88110 21260 ft 389 kts 154°
2026-04-26 07:56 -5.45286 106.89144 20918 ft 384 kts 162°
2026-04-26 07:56 -5.47907 106.89500 20738 ft 379 kts 180°
2026-04-26 07:56 -5.50495 106.89058 20277 ft 378 kts 197°
2026-04-26 07:56 -5.52958 106.88135 19771 ft 377 kts 200°
2026-04-26 07:57 -5.55386 106.87152 19293 ft 375 kts 200°
2026-04-26 07:57 -5.57768 106.86187 18830 ft 372 kts 200°
2026-04-26 07:57 -5.60168 106.85233 18368 ft 370 kts 199°
2026-04-26 07:57 -5.62560 106.84297 17881 ft 367 kts 199°
2026-04-26 07:58 -5.64933 106.83377 17385 ft 364 kts 199°
2026-04-26 07:58 -5.67288 106.82469 16890 ft 361 kts 199°
2026-04-26 07:58 -5.69629 106.81567 16407 ft 359 kts 199°
2026-04-26 07:58 -5.71951 106.80672 15936 ft 356 kts 199°
2026-04-26 07:59 -5.74258 106.79783 15462 ft 353 kts 199°
2026-04-26 07:59 -5.76545 106.78901 15002 ft 351 kts 199°
2026-04-26 07:59 -5.78790 106.78036 14562 ft 348 kts 199°
2026-04-26 07:59 -5.81044 106.77167 14121 ft 346 kts 199°
2026-04-26 08:00 -5.83283 106.76304 13684 ft 343 kts 199°
2026-04-26 08:00 -5.85439 106.75291 13198 ft 343 kts 213°
2026-04-26 08:00 -5.87116 106.73614 12702 ft 343 kts 236°
2026-04-26 08:00 -5.88156 106.71462 12220 ft 341 kts 247°
2026-04-26 08:01 -5.89026 106.69262 11805 ft 337 kts 248°
2026-04-26 08:01 -5.89873 106.67077 11411 ft 333 kts 248°
2026-04-26 08:01 -5.90716 106.64919 11021 ft 329 kts 248°
2026-04-26 08:01 -5.91556 106.62790 10681 ft 325 kts 248°
2026-04-26 08:02 -5.92378 106.60724 10562 ft 312 kts 248°
2026-04-26 08:02 -5.93171 106.58736 10366 ft 303 kts 248°
2026-04-26 08:02 -5.93957 106.56781 10016 ft 301 kts 248°
2026-04-26 08:02 -5.94747 106.54843 9639 ft 299 kts 248°
2026-04-26 08:03 -5.95521 106.52953 9404 ft 292 kts 248°
2026-04-26 08:03 -5.96285 106.51087 9192 ft 290 kts 248°
2026-04-26 08:03 -5.97058 106.49195 8988 ft 294 kts 248°
2026-04-26 08:03 -5.97830 106.47304 8774 ft 291 kts 248°
2026-04-26 08:04 -5.98596 106.45425 8567 ft 289 kts 248°
2026-04-26 08:04 -5.99358 106.43555 8348 ft 289 kts 248°
2026-04-26 08:04 -6.00118 106.41688 8141 ft 287 kts 248°
2026-04-26 08:04 -6.00873 106.39834 7934 ft 287 kts 248°
2026-04-26 08:05 -6.01624 106.37986 7771 ft 280 kts 248°
2026-04-26 08:05 -6.02331 106.36245 7639 ft 265 kts 248°
2026-04-26 08:05 -6.03016 106.34569 7385 ft 255 kts 247°
2026-04-26 08:05 -6.03754 106.32976 7088 ft 246 kts 233°
2026-04-26 08:06 -6.05012 106.31914 6951 ft 238 kts 201°
2026-04-26 08:06 -6.06663 106.31642 6744 ft 243 kts 172°
2026-04-26 08:06 -6.08324 106.31900 6498 ft 240 kts 166°
2026-04-26 08:06 -6.09942 106.32233 6263 ft 235 kts 166°
2026-04-26 08:07 -6.11561 106.32569 5995 ft 238 kts 166°
2026-04-26 08:07 -6.13150 106.32880 5761 ft 235 kts 167°
2026-04-26 08:07 -6.14758 106.33177 5528 ft 234 kts 167°
2026-04-26 08:07 -6.16364 106.33466 5287 ft 233 kts 168°
2026-04-26 08:08 -6.17953 106.33748 5063 ft 230 kts 168°
2026-04-26 08:08 -6.19498 106.34025 5032 ft 216 kts 165°
2026-04-26 08:08 -6.20741 106.34682 4938 ft 195 kts 133°
2026-04-26 08:08 -6.21477 106.35751 4839 ft 179 kts 120°
2026-04-26 08:09 -6.22102 106.36765 4736 ft 162 kts 120°
2026-04-26 08:09 -6.22674 106.37681 4571 ft 149 kts 120°
2026-04-26 08:09 -6.23207 106.38532 4388 ft 136 kts 120°
2026-04-26 08:09 -6.23662 106.39339 4126 ft 135 kts 108°
2026-04-26 08:10 -6.23786 106.40235 3998 ft 127 kts 84°
2026-04-26 08:10 -6.23537 106.41113 4019 ft 136 kts 66°
2026-04-26 08:10 -6.23153 106.41983 4004 ft 134 kts 66°
2026-04-26 08:10 -6.22785 106.42847 4024 ft 137 kts 67°
2026-04-26 08:11 -6.22425 106.43726 4019 ft 135 kts 68°
2026-04-26 08:11 -6.22081 106.44621 3921 ft 137 kts 69°
2026-04-26 08:11 -6.21740 106.45494 3768 ft 136 kts 68°
2026-04-26 08:11 -6.21392 106.46374 3592 ft 135 kts 68°
2026-04-26 08:12 -6.21046 106.47244 3417 ft 132 kts 68°
2026-04-26 08:12 -6.20706 106.48106 3262 ft 133 kts 67°
2026-04-26 08:12 -6.20362 106.48971 3092 ft 132 kts 67°
2026-04-26 08:12 -6.20021 106.49832 2932 ft 132 kts 67°
2026-04-26 08:13 -6.19680 106.50692 2762 ft 133 kts 66°
2026-04-26 08:13 -6.19336 106.51560 2594 ft 132 kts 66°
2026-04-26 08:13 -6.18994 106.52423 2418 ft 132 kts 66°
2026-04-26 08:13 -6.18653 106.53281 2246 ft 133 kts 66°
2026-04-26 08:14 -6.18312 106.54142 2072 ft 130 kts 66°
2026-04-26 08:14 -6.17981 106.54977 1915 ft 130 kts 66°
2026-04-26 08:14 -6.17644 106.55828 1748 ft 132 kts 64°
2026-04-26 08:14 -6.17302 106.56691 1587 ft 135 kts 64°
2026-04-26 08:15 -6.16959 106.57560 1408 ft 133 kts 65°
2026-04-26 08:15 -6.16620 106.58409 1236 ft 127 kts 64°
2026-04-26 08:15 -6.16280 106.59264 1061 ft 132 kts 64°
2026-04-26 08:15 -6.15949 106.60102 909 ft 131 kts 63°
2026-04-26 08:16 -6.15609 106.60958 747 ft 132 kts 63°
2026-04-26 08:16 -6.15276 106.61799 606 ft 128 kts 64°
2026-04-26 08:16 -6.14937 106.62650 452 ft 133 kts 63°
2026-04-26 08:16 -6.14605 106.63508 287 ft 131 kts 64°
2026-04-26 08:17 -6.14271 106.64344 111 ft 132 kts 63°
2026-04-26 08:17 -6.13920 106.65185 42 ft 122 kts 65°
2026-04-26 08:17 -6.13683 106.65791 38 ft 65 kts 68°
2026-04-26 08:17 -6.13538 106.66141 40 ft 47 kts 59°
2026-04-26 08:18 -6.13383 106.66296 40 ft 16 kts 34°
2026-04-26 08:18 -6.13292 106.66289 39 ft 14 kts 338°
2026-04-26 08:18 -6.13222 106.66244 38 ft 11 kts 287°
2026-04-26 08:18 -6.13245 106.66160 38 ft 14 kts 248°
2026-04-26 08:19 -6.13289 106.66054 37 ft 18 kts 248°
2026-04-26 08:19 -6.13339 106.65927 38 ft 21 kts 248°
2026-04-26 08:19 -6.13397 106.65785 38 ft 23 kts 249°
2026-04-26 08:19 -6.13456 106.65630 38 ft 25 kts 249°
2026-04-26 08:20 -6.13523 106.65465 38 ft 25 kts 249°
2026-04-26 08:20 -6.13575 106.65330 37 ft 15 kts 262°
2026-04-26 08:20 -6.13508 106.65270 38 ft 15 kts 339°
2026-04-26 08:20 -6.13421 106.65237 38 ft 10 kts 338°
2026-04-26 08:21 -6.13352 106.65209 38 ft 11 kts 338°
2026-04-26 08:21 -6.13316 106.65187 38 ft 4 kts 331°
2026-04-26 08:21 -6.13285 106.65193 38 ft 5 kts 28°
2026-04-26 08:21 -6.13259 106.65207 38 ft 0 kts 29°
2026-04-26 08:22 -6.13258 106.65208 38 ft 0 kts 29°